Temp
60 59 59 59 59 59 59 59 59 59 60 59 60 60 59 59 57 49 44 54 54 60 57 48 47 45 45 42 44 43 32 28 31 33 39 39 37 43 45 42 45 49 48 51 54
59 59 59 58 58 58 58 59 59 59 59 59 59 59 59 58 45 43 57 61 60 59 48 43 40 41 36 38 39 36 29 31 37 35 34 37 36 37 38 40 41 43 50 52 52
58 58 57 57 58 58 58 59 59 59 58 58 58 58 58 51 39 43 60 61 60 55 48 46 43 40 34 36 34 33 28 32 35 37 38 35 35 38 34 32 39 38 43 46 48
58 58 57 58 58 58 58 58 58 58 58 58 58 58 56 45 31 46 59 59 59 50 46 42 39 33 31 29 35 27 32 33 34 37 35 33 36 33 35 36 42 42 44 45 45
57 57 57 57 58 58 58 58 58 57 58 58 58 56 45 35 37 51 57 54 49 46 41 39 34 33 29 29 31 28 29 33 34 35 34 36 32 32 33 39 42 43 43 42 43
57 57 56 57 57 57 58 57 57 57 57 57 57 55 39 30 48 50 47 47 46 42 39 39 36 37 32 30 29 31 30 31 33 33 34 31 31 33 36 41 40 41 40 42 43
57 56 56 56 57 57 57 57 57 56 56 57 57 48 36 36 45 45 46 44 44 43 38 41 40 36 33 29 33 31 25 29 31 32 30 33 27 28 38 40 38 38 40 42 43
56 56 56 56 56 56 56 56 56 55 55 56 55 42 33 46 43 46 45 43 44 44 42 41 40 36 33 34 31 26 25 18 31 30 31 29 21 33 39 37 36 38 39 41 42
56 56 56 56 56 56 55 55 54 54 54 54 41 36 33 50 41 44 42 40 41 40 40 46 38 32 31 25 19 22 15 17 23 30 30 27 23 32 38 37 35 37 39 40 42
56 56 56 56 56 55 54 54 52 48 46 49 45 33 38 35 39 42 41 41 37 35 35 34 31 26 23 19 7 18 14 19 19 27 28 25 24 31 35 35 34 36 38 39 41
56 55 56 56 56 54 45 36 33 34 35 32 33 32 33 39 40 39 40 37 35 33 25 28 22 16 22 23 25 22 19 16 22 28 25 23 24 27 33 34 33 33 31 31 33
55 55 55 55 55 52 39 32 33 35 26 34 32 33 36 37 32 36 40 32 31 25 26 20 14 26 27 27 24 22 17 17 23 28 26 24 23 28 31 31 28 29 28 30 31
55 55 55 55 53 41 34 34 39 36 24 30 33 33 34 36 32 32 37 33 27 22 21 14 22 30 26 24 23 22 18 19 19 25 26 22 17 24 30 27 29 30 30 31 30
55 55 55 54 44 37 34 38 38 36 12 28 31 34 35 34 30 37 37 33 28 18 21 15 24 26 22 19 24 15 25 24 21 16 9 21 6 20 25 24 25 27 28 28 29
55 55 55 52 41 37 38 38 36 32 9 31 31 40 35 31 32 31 36 32 23 25 18 17 18 20 16 21 27 16 25 21 19 14 12 12 8 16 20 18 19 24 27 27 28
54 54 54 45 41 40 38 36 33 16 7 27 31 30 29 30 30 32 31 34 30 19 20 22 27 20 20 27 27 25 16 18 6 2 -2 8 10 14 17 16 18 23 24 25 26
54 54 51 47 40 41 36 31 18 9 30 25 27 29 26 25 26 23 18 17 13 12 2 17 18 26 28 11 12 10 3 -5 -6 -8 -4 15 14 16 17 20 19 19 21 23 25
54 53 47 43 40 38 33 23 7 17 21 30 27 26 21 26 22 14 11 11 15 7 2 0 4 17 27 21 11 5 6 4 -2 -7 5 17 3 13 20 23 25 24 22 23 22
52 41 38 39 41 35 29 11 15 21 29 25 26 15 16 23 18 15 9 10 14 11 10 5 4 23 27 26 19 4 7 16 10 -11 -4 4 14 21 24 23 22 20 21 19 20
39 39 36 40 37 33 24 21 20 30 30 25 15 20 14 19 14 14 10 18 12 18 22 14 3 20 22 23 20 15 21 5 8 -3 -8 1 6 7 12 13 17 14 17 17 19
35 33 34 37 39 29 19 14 22 31 30 22 21 20 19 19 18 15 15 20 23 21 23 12 12 7 14 7 8 6 6 14 16 7 -2 -3 2 8 7 11 13 14 17 16 17
34 28 33 36 27 25 14 16 30 29 31 28 25 20 20 20 15 16 16 18 28 24 17 18 13 -4 4 12 16 11 7 15 9 5 7 7 8 9 10 14 17 15 16 17 18
24 30 37 37 21 11 22 22 29 27 26 23 21 26 25 13 14 18 21 25 28 23 19 17 9 -5 1 9 13 4 7 12 16 13 6 4 5 13 11 16 16 14 15 15 18
30 22 26 30 29 23 20 22 16 28 25 28 25 26 22 19 22 11 18 26 28 25 28 23 12 2 3 9 9 1 5 11 12 6 1 7 11 18 17 14 14 13 15 15 15
30 23 22 16 18 21 24 23 21 18 25 26 21 21 20 15 16 15 20 21 23 27 26 22 13 8 13 13 9 6 5 8 7 10 7 11 5 15 16 13 14 15 14 14 13
21 23 18 24 25 23 24 20 20 22 21 19 19 20 20 15 16 14 18 19 18 17 15 19 14 11 4 7 6 -5 5 6 5 10 11 11 11 14 14 14 14 13 13 12 12
34 30 28 24 22 19 21 22 21 23 24 26 22 18 15 20 24 24 23 23 21 17 16 16 13 7 4 4 1 -0 0 -5 6 7 8 9 15 11 13 10 12 12 12 12 11
MSLP
1024.91 1024.51 1024.19 1023.82 1023.34 1022.80 1022.37 1021.88 1021.51 1021.12 1020.72 1020.33 1020.06 1019.72 1019.51 1019.17 1018.97 1018.80 1018.57 1018.37 1018.32 1018.22 1018.40 1018.51 1018.34 1018.21 1017.90 1018.04 1018.17 1018.19 1018.45 1017.06 1016.47 1016.08 1014.66 1015.06 1015.57 1015.31 1015.49 1015.38 1014.74 1013.94 1012.96 1012.42 1012.71
1025.07 1024.53 1024.23 1023.87 1023.36 1022.86 1022.40 1021.89 1021.49 1021.05 1020.59 1020.28 1019.88 1019.57 1019.26 1019.11 1019.33 1018.99 1018.35 1018.08 1018.26 1018.23 1018.49 1018.72 1018.73 1018.60 1018.70 1018.65 1018.54 1018.72 1018.68 1017.64 1016.82 1016.63 1016.27 1015.99 1016.50 1016.53 1016.08 1015.26 1013.65 1013.71 1012.77 1012.74 1012.78
1025.19 1024.80 1024.41 1023.94 1023.45 1022.89 1022.29 1021.79 1021.31 1020.76 1020.33 1020.00 1019.56 1019.30 1019.24 1019.51 1019.55 1018.83 1018.26 1018.24 1018.28 1018.53 1018.78 1018.94 1018.98 1019.05 1019.32 1019.19 1019.05 1018.99 1018.44 1017.97 1017.28 1016.99 1016.99 1016.58 1016.59 1016.58 1016.16 1014.63 1014.51 1013.64 1012.51 1012.72 1012.50
1025.07 1024.67 1024.27 1023.72 1023.21 1022.64 1022.10 1021.54 1021.06 1020.62 1020.27 1019.78 1019.34 1019.11 1019.20 1019.77 1020.01 1018.91 1018.61 1018.50 1018.40 1018.73 1018.99 1019.14 1019.28 1019.64 1019.97 1020.00 1019.68 1019.70 1018.77 1018.49 1017.86 1017.43 1017.28 1016.77 1016.16 1015.95 1015.86 1013.83 1014.10 1013.01 1012.31 1011.80 1012.12
1025.12 1024.78 1024.23 1023.72 1023.12 1022.48 1021.91 1021.33 1020.91 1020.36 1020.00 1019.58 1019.37 1019.32 1019.55 1019.80 1019.28 1018.78 1018.70 1018.79 1018.85 1018.93 1019.12 1019.32 1019.57 1019.77 1019.93 1020.07 1020.06 1019.76 1018.98 1018.39 1017.77 1017.20 1016.82 1016.62 1015.78 1015.32 1014.23 1013.28 1012.74 1012.13 1012.03 1011.28 1011.24
1025.22 1024.77 1024.22 1023.63 1023.01 1022.42 1021.70 1021.16 1020.69 1020.20 1019.57 1019.36 1019.17 1019.63 1020.07 1019.78 1018.49 1018.54 1018.63 1018.68 1018.74 1019.01 1019.19 1019.39 1019.41 1019.45 1019.60 1019.86 1019.92 1019.37 1019.00 1018.19 1017.29 1016.46 1016.56 1016.93 1015.77 1015.67 1013.10 1012.09 1011.79 1011.54 1011.17 1010.75 1010.28
1025.34 1024.76 1024.23 1023.69 1023.03 1022.30 1021.50 1020.88 1020.25 1019.66 1019.40 1018.98 1018.81 1019.13 1019.74 1018.94 1018.35 1018.47 1018.51 1018.49 1018.48 1018.66 1018.95 1018.96 1019.05 1019.38 1019.67 1019.77 1019.48 1019.55 1019.48 1018.57 1016.92 1016.29 1016.67 1016.64 1015.61 1014.39 1012.28 1011.34 1011.60 1011.29 1010.70 1010.05 1009.33
1025.45 1025.01 1024.42 1023.73 1022.95 1022.07 1021.13 1020.39 1019.76 1019.49 1019.24 1018.97 1018.78 1019.15 1018.89 1017.94 1017.99 1018.04 1018.16 1018.34 1018.34 1018.41 1018.54 1018.55 1018.81 1019.36 1019.77 1019.73 1019.81 1019.88 1019.83 1018.63 1016.06 1016.03 1016.24 1016.53 1014.92 1013.05 1011.80 1011.59 1011.34 1010.49 1009.81 1009.36 1008.66
1025.70 1025.28 1024.64 1023.90 1023.01 1021.96 1021.01 1020.05 1019.51 1019.31 1019.04 1019.02 1019.24 1019.43 1018.71 1017.75 1018.08 1018.02 1018.08 1018.20 1018.14 1018.26 1018.26 1018.42 1018.82 1019.39 1019.90 1020.16 1020.39 1019.84 1019.25 1018.26 1016.39 1015.97 1015.91 1015.98 1014.08 1012.37 1010.90 1011.75 1011.15 1009.71 1009.00 1008.51 1007.74
1025.67 1025.11 1024.41 1023.78 1023.06 1022.24 1021.29 1020.07 1019.62 1019.49 1019.51 1019.13 1019.61 1020.13 1018.76 1018.20 1017.97 1017.79 1017.83 1017.87 1018.03 1018.21 1018.42 1018.70 1019.18 1019.60 1020.07 1020.33 1019.87 1018.98 1018.95 1017.62 1016.42 1015.40 1015.62 1014.96 1012.98 1011.70 1009.99 1011.47 1010.03 1009.13 1008.47 1007.99 1007.45
1025.39 1024.94 1024.37 1023.76 1022.93 1022.48 1021.81 1020.83 1021.46 1020.84 1020.70 1020.63 1020.34 1020.14 1019.41 1018.84 1018.51 1017.92 1017.67 1017.89 1018.04 1018.42 1018.83 1019.18 1019.65 1019.45 1018.72 1018.80 1018.40 1018.48 1017.93 1016.82 1015.41 1014.83 1015.48 1013.61 1012.51 1009.84 1009.98 1010.21 1009.18 1009.00 1008.76 1008.43 1007.91
1025.35 1024.88 1024.28 1023.56 1022.88 1022.69 1022.78 1023.38 1024.13 1024.15 1022.33 1020.27 1020.02 1020.16 1019.44 1019.21 1018.96 1018.15 1017.96 1018.29 1018.53 1018.95 1019.44 1019.99 1018.96 1018.06 1018.07 1017.93 1018.03 1017.86 1017.11 1015.84 1015.19 1014.55 1014.40 1013.10 1011.17 1009.53 1009.29 1009.01 1009.06 1009.09 1009.10 1008.83 1008.05
1025.08 1024.62 1024.10 1023.45 1022.98 1023.41 1023.87 1024.06 1023.95 1024.08 1023.59 1020.33 1019.73 1019.38 1018.98 1019.40 1018.84 1018.09 1018.19 1018.37 1018.79 1019.35 1019.75 1020.00 1017.67 1017.70 1017.91 1017.44 1017.44 1016.90 1016.57 1015.49 1015.25 1014.18 1013.85 1013.02 1010.86 1008.46 1008.27 1008.48 1008.73 1009.04 1009.15 1008.97 1008.49
1024.98 1024.36 1023.89 1023.35 1023.40 1023.95 1023.97 1023.99 1023.79 1023.89 1023.35 1020.43 1019.45 1018.67 1018.82 1019.00 1018.68 1017.93 1018.02 1018.62 1019.04 1019.21 1019.68 1019.52 1018.20 1017.67 1017.38 1017.20 1017.17 1016.45 1015.84 1015.66 1015.39 1015.20 1014.33 1013.93 1012.65 1007.17 1007.87 1008.35 1008.75 1008.96 1009.02 1008.77 1008.35
1024.69 1024.16 1023.62 1023.30 1023.98 1024.09 1023.95 1023.83 1023.98 1024.08 1022.96 1019.99 1018.80 1018.32 1018.64 1019.23 1018.64 1018.29 1018.09 1018.46 1018.96 1019.18 1020.35 1018.27 1017.80 1017.61 1017.37 1016.54 1016.68 1016.41 1016.19 1016.18 1015.96 1015.58 1015.21 1013.98 1013.91 1008.84 1008.70 1008.94 1009.48 1009.43 1009.14 1008.88 1008.47
1024.43 1023.91 1023.41 1023.65 1023.94 1023.64 1023.75 1023.90 1024.12 1024.20 1021.61 1019.52 1018.97 1018.73 1018.95 1018.89 1018.93 1018.62 1018.66 1018.90 1019.50 1019.91 1019.71 1018.39 1017.83 1017.57 1016.63 1016.22 1016.57 1016.82 1017.04 1016.72 1017.03 1016.92 1016.26 1013.74 1013.13 1008.59 1009.17 1009.63 1009.61 1009.47 1009.25 1008.76 1008.22
1024.26 1023.56 1023.04 1023.15 1023.22 1023.38 1023.69 1024.22 1024.54 1023.40 1020.34 1019.60 1019.22 1019.20 1019.74 1019.41 1019.40 1019.75 1020.19 1020.47 1020.72 1020.91 1020.61 1019.18 1017.50 1016.44 1016.24 1016.98 1017.33 1017.85 1018.68 1018.81 1018.62 1018.18 1016.44 1013.92 1012.85 1009.90 1009.45 1009.57 1009.66 1009.34 1008.93 1008.54 1008.09
1024.18 1023.42 1022.78 1023.05 1023.23 1023.32 1023.85 1024.40 1024.59 1021.69 1020.42 1019.61 1019.52 1019.70 1020.10 1019.68 1019.96 1020.72 1020.97 1021.03 1020.76 1021.40 1021.37 1020.46 1018.03 1016.83 1016.24 1016.66 1017.59 1018.37 1019.22 1019.39 1018.98 1018.45 1015.65 1013.90 1012.11 1009.57 1009.37 1009.52 1009.64 1009.54 1009.01 1008.53 1007.78
1023.69 1023.31 1023.16 1023.28 1023.45 1023.67 1024.25 1024.67 1022.83 1021.50 1020.75 1020.41 1020.08 1019.56 1019.95 1019.94 1020.61 1021.05 1021.47 1020.95 1020.54 1020.86 1021.09 1020.44 1018.77 1016.80 1016.50 1016.71 1017.32 1018.56 1018.70 1017.72 1017.84 1017.61 1017.00 1013.78 1011.54 1009.67 1009.55 1009.51 1009.66 1009.64 1009.11 1008.57 1008.09
1023.90 1023.66 1023.52 1023.47 1023.61 1024.07 1024.73 1024.06 1022.54 1021.35 1020.93 1021.00 1021.09 1020.35 1019.97 1019.92 1020.87 1021.10 1020.59 1019.43 1019.61 1019.49 1019.59 1019.59 1019.02 1017.14 1016.91 1017.00 1016.92 1017.36 1017.51 1017.53 1017.33 1017.24 1016.46 1013.98 1012.23 1011.04 1010.52 1010.57 1010.45 1010.11 1009.75 1009.15 1008.32
1024.13 1024.04 1023.76 1023.76 1023.81 1024.67 1024.86 1023.96 1022.60 1021.49 1021.28 1021.31 1020.78 1020.40 1020.15 1020.04 1020.26 1020.52 1019.74 1018.68 1018.31 1018.66 1019.31 1019.46 1019.51 1018.42 1017.97 1017.91 1017.39 1017.77 1017.56 1017.36 1016.51 1016.47 1016.20 1014.48 1012.21 1011.12 1011.51 1011.56 1011.05 1010.61 1010.13 1009.43 1008.49
1024.57 1024.56 1024.10 1024.14 1024.63 1024.38 1024.30 1023.36 1022.60 1021.59 1021.33 1021.01 1020.76 1020.40 1019.92 1019.63 1019.78 1019.59 1018.75 1017.97 1017.33 1017.81 1018.28 1018.39 1018.90 1019.04 1018.28 1017.46 1017.75 1017.69 1017.64 1017.13 1016.40 1016.37 1015.93 1015.08 1011.52 1011.02 1011.33 1011.47 1011.47 1010.97 1010.41 1009.75 1009.01
1025.09 1024.45 1024.37 1024.36 1024.50 1024.49 1023.73 1023.18 1022.63 1021.66 1021.33 1020.73 1020.46 1020.00 1019.24 1019.49 1018.94 1017.85 1017.41 1016.76 1016.73 1017.20 1017.26 1017.89 1018.54 1019.20 1018.32 1018.45 1018.13 1018.11 1017.75 1017.35 1016.86 1016.41 1014.86 1014.92 1011.84 1010.76 1011.34 1011.40 1011.57 1011.40 1010.85 1010.19 1009.39
1025.46 1025.14 1024.62 1024.59 1024.39 1024.47 1023.69 1022.55 1021.87 1021.64 1021.48 1020.88 1020.20 1019.81 1019.38 1018.82 1018.37 1017.73 1016.86 1016.37 1016.24 1016.57 1016.59 1016.83 1017.49 1018.27 1018.30 1017.94 1018.41 1018.61 1018.01 1017.49 1017.48 1016.59 1014.82 1013.17 1011.80 1010.67 1011.30 1011.63 1011.76 1011.76 1011.39 1010.91 1010.21
1025.91 1025.60 1025.31 1025.14 1024.65 1024.54 1024.30 1023.22 1021.89 1021.73 1021.38 1021.16 1019.59 1019.53 1019.07 1018.32 1017.79 1017.43 1016.58 1016.13 1015.71 1015.63 1015.64 1016.08 1016.36 1017.15 1017.16 1017.57 1018.38 1018.22 1017.78 1016.74 1017.02 1015.61 1014.90 1012.06 1012.36 1011.44 1011.98 1012.30 1012.43 1012.37 1011.97 1011.50 1010.89
1026.17 1026.28 1025.93 1025.19 1024.51 1023.94 1023.59 1022.60 1022.25 1021.30 1021.80 1020.63 1020.19 1019.69 1019.28 1018.95 1018.63 1016.99 1016.66 1016.35 1015.52 1015.42 1015.44 1015.30 1015.38 1016.26 1017.04 1017.18 1018.09 1018.32 1016.89 1016.13 1015.88 1014.97 1014.17 1013.25 1012.40 1011.90 1012.40 1012.71 1012.90 1012.92 1012.63 1012.30 1011.93
1025.61 1025.67 1025.70 1024.34 1024.00 1023.75 1022.63 1022.00 1021.71 1021.85 1020.73 1021.03 1020.49 1019.73 1019.11 1018.69 1018.16 1017.24 1016.50 1015.63 1014.95 1014.98 1014.84 1015.14 1015.28 1016.11 1016.73 1017.31 1018.12 1017.77 1016.05 1015.97 1014.86 1014.20 1013.53 1013.20 1012.54 1012.56 1012.86 1013.30 1013.54 1013.46 1013.29 1013.19 1013.06
Wind_Speed
19 18 19 21 20 20 20 20 20 20 20 19 19 18 16 14 13 2 1 2 3 7 6 4 6 6 4 3 3 2 1 8 7 5 11 7 10 2 2 12 7 6 14 14 19
19 19 19 21 21 21 21 20 20 20 20 21 20 18 16 11 3 3 3 4 4 8 5 6 6 7 4 2 1 3 4 8 5 1 5 12 4 10 8 17 23 18 18 16 17
19 20 19 19 20 20 20 21 20 20 18 19 18 16 12 4 2 4 1 5 5 5 2 1 2 2 2 4 1 2 7 3 3 2 3 12 15 5 5 18 16 19 23 20 19
19 21 21 21 22 23 23 23 22 20 20 20 13 11 6 3 5 3 4 5 5 3 2 2 2 2 3 4 3 4 7 8 4 2 6 13 11 9 14 25 17 22 23 23 20
19 21 23 23 24 25 25 25 21 21 22 15 9 4 4 2 6 4 2 5 2 1 2 2 2 3 2 3 3 6 5 8 9 13 9 8 16 19 24 23 22 22 20 23 20
21 21 22 23 25 26 27 26 22 25 19 11 6 5 4 2 2 3 1 3 2 2 2 3 4 4 3 3 4 2 7 14 14 20 15 12 17 13 20 24 24 18 18 18 19
21 21 22 24 26 28 30 26 22 22 14 8 9 4 4 9 2 2 3 2 2 3 3 4 3 3 1 4 4 4 7 13 21 16 9 2 13 18 27 27 18 19 22 22 24
20 22 23 25 27 29 29 27 28 15 11 8 5 3 6 3 2 4 0 4 3 4 3 2 4 3 3 2 3 3 2 6 16 3 5 9 22 27 23 19 20 24 22 21 24
20 21 22 23 25 28 25 29 20 11 9 3 3 3 7 3 0 2 1 3 4 1 2 3 4 4 2 2 4 4 6 9 17 9 6 8 15 22 27 13 21 27 25 23 24
19 20 20 22 24 23 26 27 10 6 6 1 2 2 4 2 2 3 3 2 2 1 2 2 2 2 1 4 8 9 7 12 15 6 8 20 28 29 30 18 23 23 21 20 20
20 20 21 23 26 16 12 6 9 6 7 4 3 5 5 7 3 4 2 2 2 2 2 1 2 8 14 15 16 12 16 21 24 21 17 24 25 31 21 16 22 11 6 9 11
20 21 22 22 24 11 5 6 4 4 12 6 8 7 6 2 5 5 2 2 2 4 3 4 12 14 4 10 13 15 20 24 23 17 11 19 29 26 22 16 6 2 5 9 14
20 20 20 22 14 5 2 3 3 2 5 7 4 4 3 5 5 4 6 1 5 4 6 8 9 4 9 14 14 16 17 19 20 20 12 20 20 18 5 5 2 1 5 7 12
19 20 20 19 4 3 3 4 2 3 6 5 3 4 3 2 6 4 3 6 3 7 5 8 6 6 6 10 9 15 9 14 15 13 8 5 14 32 7 5 3 9 11 13 16
19 20 19 6 4 3 4 3 3 3 6 2 2 1 1 4 5 1 0 2 7 6 6 15 3 6 7 10 4 11 7 11 16 17 13 6 7 6 4 4 5 10 15 14 15
21 21 21 2 1 3 1 3 2 7 8 5 2 2 4 3 3 5 1 4 2 2 4 19 1 5 8 3 4 6 6 13 4 2 0 6 8 14 3 2 6 11 13 16 16
20 24 17 2 3 4 3 3 6 5 3 5 3 2 1 5 3 3 4 5 3 3 5 6 5 3 5 5 5 8 8 6 8 5 7 4 9 14 2 2 5 11 14 14 15
24 21 4 2 3 4 3 6 4 5 6 4 4 3 6 3 2 3 2 5 1 4 2 0 11 3 3 5 6 3 7 3 7 4 16 10 8 7 5 3 9 11 15 15 16
19 4 3 2 3 3 5 2 9 6 1 6 11 2 4 4 4 2 4 5 6 9 6 4 9 4 4 3 8 5 4 5 6 1 3 4 8 5 7 12 15 16 17 17 18
3 2 3 3 3 4 3 7 5 3 3 3 3 4 7 15 3 2 3 4 5 11 4 3 7 3 1 3 3 6 2 5 1 5 7 6 7 7 6 11 14 14 14 15 16
2 5 1 1 1 2 4 8 5 5 1 4 9 14 9 23 5 4 5 5 5 2 7 2 4 7 4 3 6 4 3 5 5 3 3 7 7 5 4 7 12 13 14 15 16
3 4 1 0 1 1 2 5 5 6 7 9 3 6 20 8 5 10 12 9 5 5 5 7 1 5 12 5 3 4 6 5 2 5 6 7 16 5 6 6 7 13 14 14 14
1 3 2 0 4 3 5 6 10 15 7 4 6 19 13 5 14 9 9 5 8 8 4 5 3 4 11 4 2 2 4 5 3 5 12 8 10 4 5 4 7 12 13 14 16
3 5 3 1 1 3 10 18 3 2 4 14 12 11 22 22 11 6 14 9 6 8 17 9 6 9 12 16 2 6 9 7 5 5 5 13 21 20 11 9 11 11 12 12 13
1 4 3 5 4 5 14 14 21 15 10 8 23 14 16 19 19 16 12 15 8 10 8 4 9 8 12 16 5 11 16 17 11 15 8 17 5 17 10 6 8 9 11 12 14
1 2 2 10 12 9 12 9 19 11 15 20 17 18 20 19 19 22 17 13 12 2 4 4 15 4 4 7 6 7 17 13 11 12 14 16 17 2 2 3 7 9 10 11 13
1 3 3 4 5 8 9 7 23 19 8 11 21 20 13 17 17 20 20 20 18 18 12 7 4 4 4 1 5 10 8 5 3 4 5 3 5 2 3 3 4 7 8 8 11
Wind_Direction
357 360 2 359 354 352 351 346 343 338 337 334 330 334 333 340 341 354 83 5 69 28 26 333 10 339 9 360 0 101 247 255 252 220 263 29 3 353 313 278 257 268 279 295 310
360 1 0 357 352 349 345 342 341 335 334 333 330 327 324 349 4 306 286 62 48 19 16 4 357 343 21 357 346 163 217 236 205 31 302 308 316 316 306 292 281 288 278 287 304
3 357 354 352 347 346 342 342 337 331 333 327 321 321 321 34 340 214 353 35 26 47 7 358 29 23 18 345 251 237 235 332 298 286 297 300 296 225 279 281 279 284 291 289 288
358 355 354 349 348 346 344 339 334 334 332 328 329 352 33 74 323 243 59 6 5 42 57 46 34 107 190 222 258 272 259 246 237 246 291 283 295 284 259 265 278 271 272 282 279
356 354 352 350 348 344 341 338 337 335 327 324 320 24 44 29 248 203 64 351 16 49 175 167 145 172 225 218 255 223 256 260 267 281 257 268 289 284 285 280 273 267 277 282 281
353 353 349 349 345 343 338 336 333 332 328 323 337 96 77 278 173 119 93 318 235 207 212 199 195 199 232 221 192 265 310 306 309 298 296 297 292 325 279 277 279 298 289 277 273
351 349 345 345 345 342 338 335 331 329 330 329 321 128 132 230 147 293 260 222 206 189 215 218 191 167 123 307 277 308 312 309 280 272 281 124 288 264 265 272 288 283 280 278 278
349 349 345 344 344 340 336 330 327 327 321 331 80 105 235 223 194 285 137 309 239 222 214 216 161 163 175 277 315 276 220 270 270 50 233 164 268 266 268 274 284 278 273 272 269
348 349 348 345 340 336 331 324 326 328 330 330 59 106 269 331 203 309 174 258 305 274 200 138 135 181 114 154 324 221 254 234 282 191 240 190 263 259 263 287 280 273 274 274 275
344 343 344 344 337 341 329 324 328 7 349 69 69 3 278 213 292 289 258 201 250 333 95 137 84 170 142 133 247 256 223 256 258 260 307 278 270 271 272 271 265 270 276 280 283
342 341 340 341 341 347 342 1 12 348 43 244 255 281 283 298 265 255 234 192 150 122 207 48 269 226 232 213 248 271 269 268 273 277 269 269 270 267 279 275 274 296 337 325 313
342 341 340 337 342 359 25 63 143 253 305 245 246 257 267 199 299 278 157 217 193 240 116 360 245 251 259 253 245 247 260 268 276 277 267 284 276 278 280 267 178 267 307 310 311
336 337 337 334 353 32 24 97 320 189 278 295 220 235 231 154 262 263 155 172 219 242 200 186 243 304 263 270 264 255 257 272 271 295 288 274 282 273 259 165 159 281 276 297 305
335 332 334 343 5 319 335 325 344 122 43 273 267 288 140 167 271 219 208 189 235 225 216 238 279 258 268 258 273 277 245 262 284 305 282 67 294 291 290 204 360 344 327 325 322
330 327 328 18 282 323 277 342 113 58 354 237 237 101 92 236 319 222 146 138 237 225 97 253 228 233 254 250 219 241 329 286 283 280 297 256 229 271 124 231 329 320 322 317 310
335 331 327 123 176 226 40 86 43 38 265 317 314 354 327 203 254 309 14 38 24 327 287 259 301 218 222 300 250 337 344 315 38 70 359 240 193 288 275 283 301 314 315 314 313
339 329 326 170 265 142 106 48 13 134 317 288 315 21 339 270 293 45 352 308 209 328 316 310 237 267 203 13 9 50 41 326 348 357 229 283 291 262 167 251 276 313 320 320 317
325 320 323 183 130 127 68 47 146 249 232 28 355 237 240 313 234 319 302 285 147 96 28 187 322 210 158 184 208 204 156 201 286 276 294 282 240 265 188 183 344 336 323 324 327
329 293 324 36 141 75 77 86 215 219 307 337 324 316 275 264 211 352 220 241 236 177 195 197 267 256 266 313 128 268 203 206 270 110 3 262 285 262 235 346 344 333 330 334 326
309 309 284 113 129 59 88 244 240 249 19 68 220 228 264 316 285 190 215 202 253 194 202 218 289 247 64 333 270 170 270 339 281 304 303 280 278 252 311 328 326 324 328 322 322
15 331 304 121 81 92 216 232 281 295 355 229 269 286 278 306 251 243 246 261 221 165 190 195 207 278 43 229 204 349 318 244 254 150 254 303 263 207 237 289 312 325 333 327 328
309 303 35 100 258 226 213 202 252 278 274 273 267 249 287 281 224 275 268 217 178 177 219 198 190 252 220 254 225 188 216 230 269 308 253 265 282 183 216 272 329 330 330 331 333
275 257 32 306 269 275 261 258 286 286 253 271 276 293 277 239 293 246 279 280 232 197 235 185 198 336 330 356 68 118 226 237 336 272 262 269 269 195 263 1 356 334 332 334 338
326 312 331 190 322 294 304 306 280 254 267 293 296 318 296 293 291 293 282 288 234 229 239 185 179 181 250 262 124 297 274 242 264 255 263 244 280 294 332 349 345 334 335 335 341
291 274 177 293 300 278 291 291 303 309 280 329 307 288 304 317 307 299 299 315 251 240 256 265 255 210 242 261 258 272 272 276 243 234 240 285 254 295 321 329 330 328 335 348 354
217 0 342 280 282 270 292 293 298 304 320 306 293 333 315 303 297 301 305 299 271 281 201 217 258 229 271 253 211 274 265 267 244 256 249 267 281 318 295 326 345 347 345 357 355
235 245 242 273 289 299 284 309 307 312 305 315 317 308 314 305 301 285 277 266 254 253 248 223 217 163 251 338 342 306 247 208 246 203 171 257 247 24 321 335 339 331 342 353 356